EHI
18 18 17 15 19 27 29 23 17 16 16 14 12 12 12 12 12 11 12 13 12 11 12 14 16 15 13 13 13 12 12 13 11 10 10 11 12 15 19 20 15 12 12
21 21 21 19 21 28 32 27 21 19 18 16 16 16 15 14 12 11 13 14 14 12 11 14 15 15 14 14 15 15 12 9 9 10 10 10 12 14 16 17 15 14 14
24 24 25 23 22 28 32 30 27 24 21 19 17 17 16 13 10 10 13 15 15 14 14 14 15 15 14 14 17 17 12 8 9 11 11 10 10 11 13 15 16 17 18
25 25 26 25 25 26 30 31 30 28 25 21 18 15 14 11 8 8 11 14 16 18 19 19 19 18 17 15 16 15 12 9 9 10 11 11 10 10 11 13 16 18 19
23 25 27 27 26 25 26 29 31 32 30 26 21 18 15 13 11 10 11 13 18 21 22 22 23 22 19 17 15 13 12 10 10 10 11 12 12 11 11 11 13 16 17
20 23 27 28 28 26 24 27 34 38 36 30 23 20 19 18 16 13 12 13 17 21 21 21 23 23 20 18 17 15 13 12 12 11 12 13 12 11 10 9 8 9 11
17 21 26 29 30 28 28 32 39 42 38 31 26 23 22 21 18 15 12 12 14 18 20 21 22 21 19 19 20 19 16 16 15 13 14 14 12 9 9 7 5 4 5
16 19 23 26 28 31 36 42 46 45 39 34 30 28 24 19 17 16 14 13 13 16 21 23 23 20 17 19 23 23 22 20 18 15 15 15 13 10 9 8 5 3 2
17 18 19 21 24 31 40 47 50 50 46 40 35 31 26 19 16 17 18 17 17 20 24 27 25 22 19 22 26 27 27 25 20 18 17 16 12 10 10 9 7 4 2
16 17 17 17 20 28 39 47 52 56 53 46 38 32 27 22 17 19 20 21 23 26 27 28 28 26 25 27 28 28 27 26 24 22 21 17 12 10 10 10 10 8 6
16 17 16 14 17 25 36 45 51 56 55 48 41 35 31 26 22 21 22 23 26 28 27 28 29 29 30 31 29 25 23 24 25 25 24 19 14 12 12 12 13 12 11
16 17 17 18 21 26 35 42 47 51 52 47 40 36 35 33 29 26 26 27 27 26 25 27 28 29 30 29 26 22 21 21 23 25 23 19 16 15 14 13 13 12 12
16 18 22 27 30 34 39 42 44 46 46 44 39 39 41 40 35 30 29 29 28 26 24 25 26 27 27 25 21 20 21 21 21 21 20 17 14 14 14 13 12 12 11
17 20 28 35 39 42 44 43 42 42 43 43 42 44 46 45 39 34 32 31 29 26 24 23 24 25 23 19 18 21 23 22 19 17 17 16 13 12 11 11 13 15 14
19 21 26 34 39 41 42 42 41 42 44 45 45 46 47 45 42 37 36 35 32 27 25 24 23 22 18 13 15 21 23 23 20 18 18 17 13 11 9 9 12 15 15
25 24 25 30 34 34 34 37 39 42 45 45 46 47 46 45 43 40 38 37 34 30 28 26 23 19 13 9 10 17 22 23 23 22 22 18 14 11 9 8 9 11 11
32 31 30 30 31 30 30 32 34 38 42 45 47 48 48 47 46 43 40 37 35 32 29 25 22 18 13 8 7 11 18 21 21 22 22 19 14 12 11 8 7 7 6
35 34 34 34 32 29 29 29 30 35 40 44 46 48 49 49 48 45 40 37 34 32 29 25 22 19 14 9 6 7 14 19 20 20 19 17 15 13 12 10 9 7 5
33 32 31 31 30 30 31 29 29 32 37 40 43 45 47 48 48 45 40 35 31 29 28 26 24 20 16 12 6 7 15 22 21 20 17 15 13 11 10 9 10 9 8
27 27 25 23 25 30 33 33 31 31 32 35 38 41 43 46 46 43 37 32 28 26 25 24 23 21 19 14 7 7 17 23 22 19 16 12 10 8 7 7 8 9 10
21 21 20 18 21 26 31 35 35 34 33 33 35 37 38 38 38 37 34 30 27 24 22 21 20 20 19 15 8 6 14 20 20 17 14 10 7 5 4 5 7 7 6
20 20 19 17 17 22 28 32 35 36 35 34 34 33 31 28 28 29 29 27 25 21 19 19 19 17 18 16 10 6 7 12 15 14 11 7 4 3 1 2 4 3 2
23 22 19 16 16 20 24 28 30 32 31 29 29 29 28 25 25 26 26 25 23 20 18 19 18 17 18 18 14 7 4 4 8 10 7 4 3 2 1 1 1 1 1
24 22 18 15 14 16 20 24 26 27 24 21 21 23 24 25 27 28 26 23 20 19 19 19 19 19 19 17 14 10 6 4 6 7 6 4 3 3 3 2 2 2 3
22 19 16 14 13 13 17 22 24 24 22 19 18 17 16 18 23 25 22 18 16 15 15 15 17 17 16 13 10 9 8 7 7 7 6 6 6 5 5 4 5 5 5
20 17 14 13 12 13 16 21 23 23 22 21 19 14 11 11 16 21 18 13 11 11 10 10 13 14 11 7 6 7 8 7 7 7 7 7 8 7 5 5 6 6 6
Wind_Speed
9 8 7 7 8 7 6 4 3 2 1 1 1 0 1 1 1 2 2 2 2 1 1 2 1 1 1 1 1 1 1 1 0 1 1 1 2 2 2 1 1 1 1
9 8 7 7 7 7 6 5 4 3 2 1 1 1 0 0 1 1 2 2 1 1 1 1 1 1 1 1 1 1 1 1 1 1 1 1 0 1 2 1 2 1 1
10 10 8 7 7 7 6 5 4 3 2 2 1 0 0 0 1 1 1 1 1 1 1 1 1 1 0 1 1 1 1 1 2 1 0 0 1 1 1 1 2 2 1
11 10 9 8 7 7 7 5 4 3 2 2 1 1 1 0 1 0 1 1 1 1 1 1 1 1 1 0 1 0 1 2 2 1 1 1 0 1 1 1 1 2 2
11 10 10 9 8 8 7 6 5 4 3 2 1 1 0 0 0 1 1 0 1 1 1 1 1 1 1 0 1 1 2 2 2 2 1 1 1 1 1 1 1 2 1
9 10 10 9 8 8 7 7 6 4 3 2 2 1 1 0 0 0 0 1 1 1 1 1 1 1 1 1 1 1 2 2 2 2 2 1 1 1 1 1 2 2 1
8 8 8 8 8 8 7 7 7 5 4 3 2 2 1 1 1 1 1 1 0 1 1 0 0 0 1 1 1 1 1 2 2 2 2 2 2 1 1 1 2 2 2
8 8 8 7 7 7 7 7 7 6 5 4 3 2 2 1 1 0 2 1 1 1 2 1 0 0 1 1 1 1 2 1 2 3 2 2 2 1 1 1 2 2 2
7 8 7 7 7 7 7 8 8 6 5 4 3 3 2 1 0 0 1 1 1 1 2 1 1 1 1 1 1 1 2 1 2 2 2 2 2 2 1 1 1 2 3
5 7 6 5 5 5 6 7 8 7 6 5 4 3 2 1 0 0 1 1 2 2 2 2 2 1 1 1 1 1 1 1 1 2 1 1 2 2 2 2 2 1 2
4 6 5 4 4 4 4 5 7 7 6 5 4 2 3 2 1 1 1 1 1 1 1 1 2 2 1 1 1 2 2 2 2 2 1 1 2 2 3 2 2 2 1
5 5 5 5 4 3 3 4 5 6 6 5 4 3 3 3 2 1 1 0 0 0 1 1 1 2 2 1 1 2 2 2 2 2 2 2 2 2 2 3 3 2 2
4 5 5 5 4 3 3 3 4 4 4 5 5 4 3 2 2 1 1 0 0 1 1 1 1 2 2 2 1 2 2 2 2 2 2 3 2 3 2 2 3 3 4
5 6 5 5 4 4 4 3 3 3 3 4 4 3 3 3 2 2 2 1 1 1 1 1 1 1 1 2 2 2 1 2 2 2 2 2 2 3 3 3 3 3 3
6 5 5 4 4 4 3 3 2 2 2 3 3 3 3 3 2 1 1 1 1 2 1 1 1 1 1 2 3 2 2 2 2 2 2 2 2 3 2 3 3 3 3
5 5 5 5 4 3 3 3 2 2 2 1 2 2 2 2 2 2 1 1 1 1 1 1 1 1 2 4 4 2 2 2 2 2 2 2 1 2 3 3 4 4 4
5 4 4 4 3 3 3 2 2 2 2 1 1 1 2 2 2 2 1 1 1 1 1 0 1 1 2 3 3 3 2 2 2 2 3 3 3 3 3 3 4 5 6
5 5 4 4 3 3 3 2 2 2 1 1 1 1 1 1 1 1 1 1 0 0 0 0 0 0 1 3 3 3 2 2 2 2 2 2 2 4 4 4 3 3 3
5 4 4 4 4 4 3 2 2 2 1 1 1 1 1 1 1 1 1 1 1 1 1 1 1 0 1 2 2 2 3 2 2 2 2 2 1 3 4 3 3 4 4
4 4 4 4 4 4 3 2 2 1 0 0 0 1 1 1 1 1 1 1 1 1 1 1 1 1 1 2 2 3 3 2 2 1 1 1 2 2 3 3 3 4 5
5 5 5 4 3 3 2 2 2 2 1 1 1 1 1 1 1 1 1 1 1 1 2 2 2 2 2 2 2 2 2 2 2 2 1 0 1 2 3 3 4 6 5
4 4 3 3 3 3 2 2 2 2 2 1 1 1 0 1 1 1 1 1 2 2 3 3 3 2 2 2 3 4 4 3 2 2 2 1 2 4 5 4 5 7 5
4 3 3 3 3 3 2 2 2 2 1 0 0 0 0 1 1 1 2 2 2 3 3 3 3 2 2 2 3 4 4 4 2 2 4 5 5 5 5 6 6 4 2
3 3 3 3 2 3 3 2 2 2 1 0 0 0 0 1 1 1 2 2 2 2 2 2 2 2 1 1 0 1 2 3 3 3 4 5 6 5 5 4 3 3 3
3 3 3 2 3 3 3 2 2 2 1 1 1 2 2 2 2 1 1 1 1 1 2 2 2 2 1 1 1 0 1 1 1 3 3 2 2 2 2 2 2 2 1
3 3 3 3 3 3 3 2 2 1 1 2 2 2 2 2 2 1 1 0 2 2 2 2 2 1 1 1 0 1 2 3 2 2 3 3 2 3 3 2 2 1 1
Wind_Direction
143 137 138 135 131 127 124 121 127 132 131 101 98 97 110 107 110 115 107 93 83 67 64 43 50 63 75 54 43 12 317 279 315 341 337 237 193 192 162 181 139 119 143
145 144 144 140 137 136 136 146 154 147 152 147 160 179 228 188 115 88 103 105 92 74 83 90 65 63 78 40 335 314 310 318 342 298 314 309 276 286 176 161 154 160 175
154 153 153 155 150 145 148 147 145 144 160 167 170 132 150 58 69 81 94 107 113 104 66 56 56 30 114 166 245 286 293 293 292 298 336 340 321 304 207 218 173 175 184
155 156 157 159 155 150 146 138 139 142 153 159 173 205 169 135 119 116 103 119 113 110 120 106 69 338 327 102 280 179 298 289 294 293 274 273 72 266 305 292 232 210 195
157 159 159 159 158 153 151 150 145 149 153 165 175 223 251 131 95 60 85 188 154 145 122 142 156 219 267 205 302 350 315 316 326 322 308 315 302 264 248 291 310 289 237
149 151 153 153 156 157 156 153 146 149 154 170 176 189 223 318 36 337 304 262 173 148 147 171 185 218 248 246 256 270 291 300 309 314 313 316 314 306 301 300 297 295 279
142 142 147 156 159 161 159 151 150 160 173 179 181 176 216 216 206 276 247 269 304 100 83 68 161 251 258 254 261 258 275 284 297 299 302 311 296 290 297 297 295 302 299
139 141 148 154 161 164 160 153 155 166 175 180 185 172 199 235 180 331 315 336 354 53 65 39 59 331 296 299 302 288 268 270 287 293 305 305 305 318 283 260 280 297 294
137 142 147 157 163 165 167 164 158 165 175 178 184 179 192 226 7 240 288 7 19 47 56 16 8 358 339 335 326 303 304 329 290 299 299 283 299 295 284 276 264 262 288
134 137 143 148 155 159 166 167 162 163 167 175 187 176 174 184 208 60 62 33 24 31 28 10 8 12 3 342 316 305 298 285 282 267 289 322 307 316 303 284 283 272 267
125 131 133 135 137 143 150 159 163 159 167 177 172 164 163 166 155 133 70 61 38 13 354 347 343 337 345 343 327 308 329 330 315 308 320 317 320 328 320 319 314 309 297
107 109 127 129 132 136 138 144 158 160 165 162 160 171 155 152 154 164 149 144 134 302 320 334 331 322 345 330 323 320 349 339 343 345 349 337 326 333 328 331 327 317 299
92 100 101 107 108 108 105 111 118 136 149 156 163 162 152 150 155 162 162 187 289 295 308 312 309 328 337 332 328 327 333 337 339 343 341 332 339 334 325 324 328 323 319
87 82 78 76 76 80 88 96 104 119 138 146 156 157 159 157 166 176 170 184 219 252 276 310 329 327 330 337 340 325 316 320 326 328 324 337 341 338 324 320 329 320 312
73 73 77 74 70 67 79 97 97 100 122 138 159 159 160 159 170 192 194 194 222 241 260 304 313 311 317 357 353 316 315 335 333 324 326 340 348 351 324 319 326 324 315
78 68 69 72 70 68 72 87 95 111 117 147 160 150 164 158 166 190 197 199 221 258 288 282 308 355 350 4 11 3 338 345 333 322 315 297 326 335 301 288 293 289 288
91 79 70 67 68 76 75 76 86 96 120 151 147 146 158 167 184 213 200 195 202 225 284 323 58 71 9 1 2 344 309 321 314 309 307 308 333 347 328 294 280 277 271
71 70 69 74 60 56 52 50 65 88 96 111 121 145 150 165 172 195 200 166 148 160 173 227 237 228 351 348 336 323 278 276 287 298 312 326 345 343 331 319 315 302 293
65 69 58 54 50 42 37 37 60 78 61 26 58 111 154 174 173 183 195 163 187 230 229 230 224 239 324 314 306 304 274 272 276 283 312 320 319 336 335 317 309 308 304
59 61 61 51 44 34 25 27 28 56 63 306 18 51 100 153 161 164 185 196 216 237 248 256 231 236 256 283 293 286 272 277 280 272 245 36 345 323 323 310 302 294 297
58 59 59 54 44 26 18 22 12 358 351 19 52 63 53 137 152 160 164 189 214 244 253 258 246 236 244 242 240 237 255 281 293 301 307 343 301 283 280 280 279 272 281
53 49 51 52 41 27 15 10 12 349 349 9 54 93 120 259 218 167 181 198 214 235 247 247 254 256 241 230 226 220 229 264 286 299 314 344 309 279 280 277 287 285 284
45 39 37 42 31 14 5 352 350 333 327 335 357 63 312 299 286 227 210 219 226 244 247 240 243 254 251 235 227 218 226 248 261 290 316 316 291 280 276 276 284 283 269
36 29 20 16 13 359 348 343 340 343 2 17 315 278 247 257 263 251 234 234 243 248 258 263 270 270 283 9 135 217 236 244 254 273 290 282 274 271 274 286 274 248 259
24 19 6 355 353 351 347 345 344 348 338 309 265 253 247 244 253 261 305 280 306 253 255 282 291 300 314 313 348 333 298 306 313 308 280 274 273 267 261 263 262 258 277
17 9 359 353 348 348 341 337 332 325 310 289 270 265 258 243 226 213 255 63 209 214 204 232 269 307 291 244 269 5 327 313 327 315 288 289 286 288 287 280 276 257 268